Other Public Products
Issued by NWS Grand Forks, ND

Home | Current Version | Previous Version | Text Only | Print | Product List | Glossary On
Versions: 1 2 3 4 5 6 7 8 9 10 11 12 13 14 15 16 17 18 19 20 21 22 23 24 25 26 27 28 29 30 31 32 33 34 35 36 37 38 39 40 41 42 43 44 45 46 47 48 49 50
000
FPUS83 KFGF 251710
OPUFGF
PRAIRIE TO PINES WEATHER ROUNDUP
NATIONAL WEATHER SERVICE EASTERN NORTH DAKOTA/GRAND FORKS ND
1200 PM CDT SUN JUN 25 2017

 **SATELLITE DATA USED TO AUGMENT SKY COVER AT AUTOMATED STATIONS**
 *****  WEATHER ACROSS EASTERN NORTH DAKOTA  *****

CITY           SKY/WX    TMP DP  RH WIND       PRES   REMARKS
GRAND FORKS    PTSUNNY   61  44  53 NW10G20   30.22S
GRAND FORKS AF FAIR      62  45  53 N13       30.23S
GRAND CITY NWS NOT AVBL
BUXTON         NOT AVBL
DEVILS LAKE    CLOUDY    60  44  55 N7        30.25S
FARGO          PTSUNNY   63  43  48 NW13      30.23S
WAHPETON ARPT  PTSUNNY   63  37  39 N9        30.25S
$$

 *****  WEATHER ACROSS CENTRAL AND WESTERN NORTH DAKOTA  *****

CITY           SKY/WX    TMP DP  RH WIND       PRES   REMARKS
JAMESTOWN      CLOUDY    59  43  55 NW8       30.25F
BISMARCK       LGT RAIN  55  44  66 W6        30.30R
MINOT          CLOUDY    64  45  49 VRB5      30.24R
MINOT AFB      FAIR      64  46  50 CALM      30.23S
GARRISON         N/A     60  52  74 VRB6      30.25S
WILLISTON      FAIR      66  47  50 E5        30.28S
DICKINSON      PTSUNNY   63  34  33 N12       30.27S
HETTINGER      FAIR      71  31  22 W12       30.26F
$$

 *****  OTHER OBSERVATIONS NORTHEAST NORTH DAKOTA  *****

CITY           SKY/WX    TMP DP  RH WIND       PRES   REMARKS
WALHALLA       NOT AVBL
LANGDON        PTSUNNY   59  41  51 N12       30.24S
CAVALIER       FAIR      61  41  48 NW14      30.23S
GRAFTON        FAIR      61  43  51 NW14      30.24S
CANDO          NOT AVBL
FORT TOTTEN      N/A     63  49  61 W2        29.95S
ROLLA            N/A     57  45  62 N8        30.26S
RUGBY          NOT AVBL
 ***** THE ABOVE OBSERVATIONS ARE NON NWS ARE NOT QUALITY
        CONTROLLED AND MAY MIS-REPORT RAIN FOR SNOW...
$$

 *****  OTHER OBSERVATIONS SOUTHEAST NORTH DAKOTA *****

CITY           SKY/WX    TMP DP  RH WIND       PRES   REMARKS
COOPERSTOWN    PTSUNNY   63  45  51 NW9G15    30.25S
VALLEY CITY    FAIR      63  45  51 NW13G18   30.26S
OAKES          NOT AVBL
GWINNER        MOSUNNY   64  45  48 NW10G21   30.26S
SHEYENNE NWR     N/A     65  45  48 NW8       29.95S
BUFFALO        NOT AVBL
WYNDMERE       NOT AVBL
 ***** THE ABOVE OBSERVATIONS ARE NON NWS ARE NOT QUALITY
       CONTROLLED AND MAY MIS-REPORT RAIN FOR SNOW...
$$

  *****  WEATHER ACROSS NORTHERN MINNESOTA  *****

CITY           SKY/WX    TMP DP  RH WIND       PRES   REMARKS
FLAG ISLAND    HVY RAIN  52  43  71 NW10      30.17R
WARROAD        FAIR      59  46  63 W16G23    30.17S
ROSEAU         FAIR      54  48  82 NW9       30.18F
HALLOCK        PTSUNNY   59  45  58 NW12      30.21F
THF RVR FALLS  FAIR      58  41  53 NW17G24   30.21F
HALSTAD        NOT AVBL
FOSSTON        PTSUNNY   57  45  62 NW15      30.21S
BAUDETTE       FAIR      59  48  67 N10       30.15F
WASKISH        HVY RAIN  52  45  76 N6G22     30.17R
CROOKSTON      FAIR      61  43  51 NW15G21   30.22S
$$
  *****  WEATHER ACROSS CENTRAL AND WEST MINNESOTA  *****

CITY           SKY/WX    TMP DP  RH WIND       PRES   REMARKS
BEMIDJI        PTSUNNY   59  42  52 N14G22    30.17F
PARK RAPIDS    FAIR      63  39  41 NW18G25   30.18S
WADENA         FAIR      57  43  58 NW17      30.20S
DETROIT LAKES  FAIR      61  43  51 N15G21    30.23S
MOORHEAD       FAIR      63  41  45 N15G21    30.24S
FERGUS FALLS   FAIR      61  43  51 NW15G22   30.22S
ELBOW LAKE     FAIR      59  43  56 NW16G23   30.24S
MORRIS MN      FAIR      64  39  39 NW18G26   30.23S
STAPLES        PTSUNNY   61  41  48 NW17      30.18S
WHEATON        FAIR      64  41  42 NW15      30.27S
$$
  *****  WEATHER ELSEWHERE ACROSS MINNESOTA  *****

CITY           SKY/WX    TMP DP  RH WIND       PRES   REMARKS
DULUTH         LGT RAIN  51  49  92 NW14G24   30.07R
INTRNTL FALLS  CLOUDY    55  46  71 NW8       30.13R
ELY            HVY RAIN  52  52 100 NW6       30.06R
CLOQUET        FAIR      54  48  82 NW13G20   30.09S
BRAINERD       PTSUNNY   60  42  51 NW18G26   30.17R
HIBBING        PTSUNNY   53  49  86 N14       30.11R
ALEXANDRIA     PTSUNNY   61  41  47 NW16G24   30.23R
SAINT CLOUD    PTSUNNY   62  44  51 N18G26    30.17R
MINNEAPOLIS    CLOUDY    59  47  64 NW16G25   30.16R
$$

  *****  WEATHER ACROSS SOUTH DAKOTA  *****

CITY           SKY/WX    TMP DP  RH WIND       PRES   REMARKS
SIOUX FALLS    FAIR      66  44  45 NW17G25   30.29S
BROOKINGS      FAIR      62  43  49 NW16      30.29S
WATERTOWN      FAIR      62  43  49 NW15G22   30.28S
HURON          FAIR      66  42  41 NW9G17    30.30F
SISSETON         N/A     66  44  45 NW17G26   30.25S
ABERDEEN       PTSUNNY   63  42  46 NW8       30.28F
MITCHELL       NOT AVBL
PIERRE         NOT AVBL
MOBRIDGE       FAIR      69  33  26 E6        30.25F
RAPID CITY     FAIR      72  36  26 S12       30.30F
$$

  *****  SOME WEATHER IN NEARBY STATES *****

CITY           SKY/WX    TMP DP  RH WIND       PRES   REMARKS
GLASGOW MT     FAIR      71  40  32 VRB5      30.26F
GREAT FALLS MT FAIR      70  39  32 E10       30.29F
CHEYENNE WY    CLOUDY    60  45  57 E9        30.41S
SCOTTSBLUFF NE FAIR      71  40  32 SE13      30.34F
OMAHA NE       FAIR      70  43  37 NW16      30.31F
DES MOINES IA  FAIR      69  43  38 NW20G29   30.25S
DAVENPORT IA   CLOUDY    65  47  52 W16G29    30.17F
CHICAGO IL     PTSUNNY   69  45  41 W14G25    30.10S
EAU CLAIRE WI  CLOUDY    59  50  72 W13       30.09S
LA CROSSE WI   PTSUNNY   69  52  54 W12       30.12S
$$

  *****  SOME NATIONAL WEATHER *****

CITY           SKY/WX    TMP DP  RH WIND       PRES   REMARKS
LA GUARDIA NY  PTSUNNY   83  56  39 SW10      29.96F
RALEIGH NC     PTSUNNY   83  64  52 VRB7      30.10S
ATLANTA GA     PTSUNNY   73  62  68 NW10      30.17S
NEW ORLEANS LA PTSUNNY   85  75  72 NE9       30.14F HX  93
OKLAHOMA CITY  PTSUNNY   83  44  25 SE12      30.27R
ALBUQUERQUE NM FAIR      79  51  37 SW9       30.31F
SALT LAKE CITY FAIR      82  39  21 NW7       30.20S
LOS ANGELES CA FAIR      71  62  73 W9        29.90F
BOISE ID       FAIR      80  42  25 S7        30.13S
SEATTLE WA     FAIR      77  56  48 W5        29.93F
$$

*** WEATHER ACROSS MANITOBA...SASKATCHEWAN AND ONTARIO ***
                ***ONTARIO***

CITY           SKY/WX    TMP DP  RH WIND       PRES   REMARKS
GERALDTON      PTSUNNY   59  37  44 N13       30.05S
THUNDER BAY    CLOUDY    59  48  67 E5        30.03S
SIOUX LOOKOUT  CLOUDY    54  41  62 NW5       30.11S
TORONTO        PTSUNNY   63  50  63 W15G24    29.95S
BIG TROUT LK   PTSUNNY   57  37  47 VRB5      30.04S
PICKLE LAKE    LGT RAIN  55  39  54 N5        30.07F
DRYDEN         PTSUNNY   55  41  58 N8        30.12R
KENORA         PTSUNNY   54  43  66 N6        30.16R
$$
                *** MANITOBA***

CITY           SKY/WX    TMP DP  RH WIND       PRES   REMARKS
BRANDON        PTSUNNY   61  39  44 N6        30.25F
DAUPHIN        PTSUNNY   61  41  48 N5        30.25S
ISLAND LAKE    PTSUNNY   61  39  44 W12G24    30.11S
PILOT MOUND      N/A     57  41  54 N10         N/A
THE PAS        MOSUNNY   64  39  39 NW8       30.23S
THOMPSON       PTSUNNY   61  46  59 N13G24    30.10F
WINNIPEG       PTSUNNY   59  46  63 N14       30.21F
LYNN LAKE      CLOUDY    63  39  42 N16G23    30.18S
CHURCHILL      PTSUNNY   48  41  76 N20       30.06S
GILLAM         LGT RAIN  55  45  67 N16G30    30.03S
$$
                ***SASKATCHEWAN***

CITY           SKY/WX    TMP DP  RH WIND       PRES   REMARKS
ESTEVAN        MOSUNNY   63  45  51 N5        30.26F
KINDERSLEY     MOSUNNY   63  48  59 E3        30.29S
LLOYDMINSTER   MOSUNNY   64  46  52 SE7       30.29S
PRINCE ALBERT  MOSUNNY   66  37  34 E6        30.31S
REGINA         PTSUNNY   63  43  48 VRB2      30.27F
YORKTON        MOSUNNY   61  39  44 NE5       30.28S



USA.gov is the U.S. government's official web portal to all federal, state and local government web resources and services.